Location: Luxembourg
(49.6117°N, 6.1300°E)
Time: 00:49:21
(UTC+01:00)

Tiangong - Pass Details

Date: 11 December 2021
Orbit: 383 x 386 km, 41.5° (Epoch: 23 January)

Event Time Altitude Azimuth Distance (km) Brightness Sun altitude
Rises 18:27:20 0° 226° (SW) 2,272 6.1 -17.1°
Reaches altitude 10° 18:30:02 10° 202° (SSW) 1,417 4.4 -17.5°
Maximum altitude 18:31:55 15° 165° (SSE) 1,170 3.5 -17.8°
Enters shadow 18:32:25 14° 154° (SSE) 1,189 3.4 -17.9°
